TimeMDT,TemperatureF,Dew PointF,Humidity,Sea Level PressureIn,VisibilityMPH,Wind Direction,Wind SpeedMPH,Gust SpeedMPH,PrecipitationIn,Events,Conditions,WindDirDegrees,DateUTC
12:53 AM,71.1,44.1,38,29.96,10.0,SW,3.5,-,N/A,,Clear,230,2013-06-27 06:53:00
1:53 AM,68.0,43.0,40,29.99,10.0,WNW,11.5,-,N/A,,Clear,300,2013-06-27 07:53:00
2:53 AM,64.9,46.0,50,30.01,10.0,WNW,12.7,-,N/A,,Clear,290,2013-06-27 08:53:00
3:53 AM,62.1,46.9,58,30.02,10.0,Calm,Calm,-,N/A,,Clear,0,2013-06-27 09:53:00
4:53 AM,64.0,48.0,56,30.03,10.0,Calm,Calm,-,N/A,,Clear,0,2013-06-27 10:53:00
5:53 AM,61.0,46.9,60,30.05,10.0,NNW,4.6,-,N/A,,Clear,340,2013-06-27 11:53:00
6:53 AM,61.0,48.0,62,30.06,10.0,Calm,Calm,-,N/A,,Clear,0,2013-06-27 12:53:00
7:53 AM,66.0,48.9,54,30.08,10.0,Calm,Calm,-,N/A,,Clear,0,2013-06-27 13:53:00
8:53 AM,72.0,48.9,44,30.07,10.0,SW,3.5,-,N/A,,Clear,220,2013-06-27 14:53:00
9:53 AM,73.9,50.0,43,30.08,10.0,SE,6.9,-,N/A,,Clear,140,2013-06-27 15:53:00
10:53 AM,79.0,48.9,35,30.06,10.0,Variable,3.5,-,N/A,,Clear,0,2013-06-27 16:53:00
11:53 AM,82.9,46.9,28,30.05,10.0,Calm,Calm,-,N/A,,Clear,0,2013-06-27 17:53:00
12:53 PM,88.0,43.0,21,30.03,10.0,NNE,3.5,-,N/A,,Clear,20,2013-06-27 18:53:00
1:53 PM,90.0,42.1,19,30.01,10.0,Variable,5.8,-,N/A,,Clear,0,2013-06-27 19:53:00
2:53 PM,90.0,41.0,18,30.00,10.0,South,4.6,-,N/A,,Clear,190,2013-06-27 20:53:00
3:53 PM,93.0,39.0,15,29.99,10.0,Variable,6.9,-,N/A,,Clear,0,2013-06-27 21:53:00
4:53 PM,93.9,39.9,15,29.98,10.0,NE,6.9,-,N/A,,Clear,40,2013-06-27 22:53:00
5:53 PM,95.0,39.9,15,29.97,10.0,Variable,3.5,-,N/A,,Clear,0,2013-06-27 23:53:00
6:53 PM,93.0,45.0,19,29.98,10.0,NNW,17.3,-,N/A,,Clear,330,2013-06-28 00:53:00
7:53 PM,90.0,46.0,22,29.99,10.0,NNW,18.4,-,N/A,,Clear,340,2013-06-28 01:53:00
8:53 PM,86.0,46.9,26,30.00,10.0,NNW,17.3,-,N/A,,Clear,330,2013-06-28 02:53:00
9:53 PM,84.0,46.0,26,30.03,10.0,NW,15.0,-,N/A,,Clear,320,2013-06-28 03:53:00
10:53 PM,81.0,46.9,30,30.04,10.0,NW,12.7,-,N/A,,Clear,320,2013-06-28 04:53:00
11:53 PM,79.0,48.0,34,30.04,10.0,NW,12.7,-,N/A,,Clear,310,2013-06-28 05:53:00